Location: Bennemühlen
(52.5740°N, 9.7135°E)
Time: 06:08:45
(UTC+00:00)

Meteor 1-18 Rocket - Pass Details

Date: 19 May 2025
Orbit: 836 x 907 km, 81.2° (Epoch: 22 June)

Event Time Altitude Azimuth Distance (km) Brightness Sun altitude
Exits shadow 23:14:39 28° 191° (S) 1,596 5.1 -17.4°
Maximum altitude 23:17:52 89° 101° (E) 900 4.3 -17.4°
Drops below altitude 10° 23:23:48 10° 13° (NNE) 2,591 8.0 -17.4°
Sets 23:26:18 0° 14° (NNE) 3,542 9.0 -17.4°
